Location: Banff
(51.1667°N, 115.5667°W)
Time: 19:56:41
(UTC+00:00)

Explorer 11/Cluster Stage 4 - Visible Passes

Search period start: 19 June 2021 00:00
Search period end: 29 June 2021 00:00
Orbit: 467 x 1257 km, 28.8° (Epoch: 18 June)

Date Brightness Start Highest point End Pass type
(mag) Time Alt. Az. Time Alt. Az. Time Alt. Az.
25 Jun 9.1 10:33:58 10° SSW 10:37:24 13° S 10:40:52 10° SSE visible
26 Jun 9.0 10:22:32 10° SSW 10:25:57 13° S 10:29:26 10° SSE visible
27 Jun 9.0 10:11:13 10° SSW 10:14:31 13° S 10:17:54 10° SSE visible
28 Jun 8.9 10:00:42 11° SSW 10:03:04 13° S 10:06:15 10° SSE visible
